星链-32680 (STARLINK-32680)

导读

STARLINK-32680是美国SpaceX公司星链星座的一颗低轨通信卫星,于2024年12月23日发射入轨。该卫星属于星链第二代规模组网批次,运行于近地轨道,配备相控阵天线与霍尔推进器,可提供高速卫星互联网服务,支持手机直连、偏远地区联网等应用,是SpaceX星链全球覆盖计划的组成部分,设计服役寿命超过5年。

Basic Information
目录编号:
62423
目录名称:
STARLINK-32680
国际标识:
2024-249Q
轨道中心:
EARTH
卫星名称:
星链-32680
卫星全名:
星链-32680 (STARLINK-32680)
卫星状态:
在轨 (已飞行620 天)
发射日期:
2024-12-23 UTC
国别 :
美国 (US)
星等 :
--
Orbit Information
数据来源 国际轨道数据
星历时间: 2026-09-04T01:59:36+0800
21小时前
查看轨道信息
半长轴: 6861.204km
偏心率: 0.0001654
轨道倾角: 43.002°
近地点辐角 278.277°
升交点赤经 28.656°
平近点角 81.790°
近地点: 481.932km
远地点: 484.202km
周期: 94.267分钟
每日圈数: 15.275742
Detailed Information
固有亮度:
5
最大亮度:
2.5
卫星平台:
Starlink V1.0
覆盖范围:
全球
运营商:
太空探索技术公司
运营商所在国:
美国
制造商(研发单位):
太空探索技术公司
制造商所在国:
美国
使用方式:
暂无
Satellite Introduction
Starlink 计划是 SpaceX 推出的全球卫星互联网项目,通过发射低轨道卫星,为全球尤其是偏远地区提供高速、低延迟的互联网服务。自 2019 年起,Starlink 已部署数千颗卫星,旨在缩小全球数字鸿沟,推动互联网普及。该项目还为军事、航空等行业提供通信支持,带来广泛经济效益。
2D Orbit Map
3D Orbit Map
Orbit Altitude Analysis Chart
Orbit Inclination Analysis Chart
Orbit Comprehensive Analysis Chart
View Comprehensive Chart
Conjunction Data List
Event ID Objects TCA Miss Dist (km) Collision Risk Probability Collision Risk Index (CRI) Action
CDM_260907-041705-684406-242321
2026-09-07T
04:17:51+0000
1.452 km
极远距离
5.759595E-6 低风险 0.5
CDM_260907-024305-684406-242321
2026-09-07T
02:43:42+0000
1.609 km
极远距离
4.154772E-6 低风险 0.47
CDM_260903-103004-014306-242323
2026-09-03T
10:30:15+0000
2.228 km
极远距离
1.968897E-6 低风险 0.41
CDM_260904-130905-864506-242321
2026-09-04T
13:09:08+0000
2.355 km
极远距离
1.79654E-6 低风险 0.4